This demonstration page uses our WeatherBlox Daily Observations layout. Learn more.

38.88101, -77.10428

Hourly Observations for November 23, 2017

Temp ( °F °C ) Dew Point ( °F °C ) Humidity (%) Winds ( mph kmh ) Pressure ( in mb ) Visibility ( mi km ) Precip ( " mm )
12:56 am 00:56 Clear 31 -0.6 23 -5 72 72 WNW 6 9 30.24 1024 10 16.0934 0 0
1:56 am 01:56 Clear 28 -2.2 22 -5.6 78 78 WNW 6 9 30.26 1025 10 16.0934 0 0
2:56 am 02:56 Clear 27 -2.8 22 -5.6 81 81 Calm 30.26 1025 10 16.0934 0 0
3:56 am 03:56 Clear 27 -2.8 21 -6.1 78 78 Calm 30.25 1024 10 16.0934 0 0
4:56 am 04:56 Clear 25 -3.9 21 -6.1 85 85 Calm 30.25 1025 10 16.0934 0 0
5:56 am 05:56 Clear 26 -3.3 21 -6.1 81 81 Calm 30.27 1025 10 16.0934 0 0
6:56 am 06:56 Clear 21 -6.1 18 -7.8 88 88 Calm 30.27 1025 10 16.0934 0 0
7:56 am 07:56 Sunny 23 -5 20 -6.7 88 88 Calm 30.28 1026 10 16.0934 0 0
8:56 am 08:56 Sunny 35 1.7 30 -1.1 82 82 WNW 5 7 30.28 1026 10 16.0934 0 0
9:56 am 09:56 Sunny 36 2.2 22 -5.6 57 57 WNW 8 13 30.27 1025 10 16.0934 0 0
10:56 am 10:56 Sunny 38 3.3 22 -5.6 52 52 VRB 3 6 30.24 1024 10 16.0934 0 0
11:56 am 11:56 Sunny 40 4.4 22 -5.6 49 49 WNW 5 7 30.2 1023 10 16.0934 0 0
12:56 pm 12:56 Sunny 41 5 22 -5.6 47 47 W 10 17 30.18 1022 10 16.0934 0 0
1:56 pm 13:56 Sunny 42 5.6 22 -5.6 45 45 VRB 5 7 30.17 1022 10 16.0934 0 0
2:56 pm 14:56 Sunny 42 5.6 21 -6.1 43 43 Calm 30.15 1021 10 16.0934 0 0
3:56 pm 15:56 Sunny 41 5 20 -6.7 43 43 NW 3 6 30.15 1021 10 16.0934 0 0
4:56 pm 16:56 Clear 38 3.3 21 -6.1 51 51 W 3 6 30.15 1021 10 16.0934 0 0
5:56 pm 17:56 Clear 36 2.2 20 -6.7 52 52 Calm 30.16 1021 10 16.0934 0 0
6:56 pm 18:56 Clear 31 -0.6 24 -4.4 76 76 Calm 30.14 1021 10 16.0934 0 0
7:56 pm 19:56 Clear 30 -1.1 24 -4.4 79 79 Calm 30.14 1021 10 16.0934 0 0
8:56 pm 20:56 Clear 31 -0.6 24 -4.4 76 76 SE 3 6 30.16 1021 10 16.0934 0 0
9:56 pm 21:56 Clear 30 -1.1 23 -5 75 75 Calm 30.16 1021 10 16.0934 0 0
10:56 pm 22:56 Clear 28 -2.2 24 -4.4 85 85 Calm 30.16 1022 10 16.0934 0 0
11:56 pm 23:56 Clear 28 -2.2 23 -5 81 81 Calm 30.16 1022 10 16.0934 0 0

Powered by AerisWeather